Location: Braux
(47.4081°N, 4.4261°E)
Time: 01:17:42
(UTC+00:00)

Daily predictions for brighter satellites

Satellite Brightness Start Highest point End
(mag) Time Altitude Azimuth Time Altitude Azimuth Time Altitude Azimuth
Resurs 1-4 Rocket 4.5 01:56:14 10° N 01:57:28 17° N 01:57:28 17° N
CENTAUR R/B 4.2 01:54:32 10° NW 02:01:42 39° NNE 02:09:41 10° E
Cosmos 2360 Rocket 4.4 02:10:29 10° NNW 02:22:23 - SE 02:12:07 18° N
ADEOS II 4.0 02:15:31 10° NNE 02:17:29 24° N 02:17:29 24° N
IDEFIX/ARIANE 42P 4.3 02:17:02 10° NNE 02:19:42 29° NE 02:19:42 29° NE
USA 234 4.0 02:19:49 10° ESE 02:24:09 45° ESE 02:24:09 45° ESE
ADEOS Rocket 4.5 02:30:07 24° N 02:30:07 24° N 02:32:16 10° N
Lacrosse 5 3.7 02:40:09 25° E 02:40:09 25° E 02:42:25 10° ESE
Cosmos 2082 Rocket 3.9 02:42:36 25° N 02:42:36 25° N 02:45:30 10° NNE
Cosmos 2333 Rocket 3.9 02:39:09 10° NNW 02:44:18 32° NE 02:49:24 10° ESE
MSX 4.4 02:39:23 10° NNE 02:44:10 54° ENE 02:44:10 54° ENE
Cosmos 2221 4.5 02:53:28 27° NE 02:53:28 27° NE 02:55:39 10° NNE
Cosmos 2219 Rocket 3.7 02:54:10 10° NNW 02:59:19 34° NE 03:04:27 10° ESE
CZ-2C R/B 3.7 02:57:23 10° NNE 03:01:40 33° E 03:02:02 32° ESE
CZ-2D R/B 4.4 03:05:59 10° NNW 03:06:50 13° NNW 03:06:50 13° NNW
USA 238 DEB 3.9 03:06:16 10° NW 03:13:30 75° NE 03:21:03 10° SE
USA 238 4.0 03:06:22 10° NW 03:13:37 75° NE 03:21:09 10° SE
GEOS 3 Rocket 4.3 03:09:15 10° NNE 03:13:38 46° NNW 03:13:38 46° NNW
COSMOS 2428 4.1 03:10:25 10° NNW 03:15:44 38° NE 03:21:02 10° ESE
ATLAS 3B R/B 4.5 03:10:44 10° NNW 03:16:29 27° NNE 03:22:27 10° E
ATLAS 5 CENTAUR R/B 3.9 03:19:17 13° SE 03:20:27 14° ESE 03:22:42 10° ENE
S3M 3.9 03:21:13 67° S 03:22:07 87° E 03:28:21 10° N
ARIANE 5 R/B 3.1 03:19:43 10° N 03:23:22 45° NNW 03:23:22 45° NNW
Cosmos 1745 Rocket 3.9 03:19:07 10° N 03:25:26 79° W 03:26:32 62° SSW
USA 267 3.4 03:27:59 10° NE 03:34:26 63° NNW 03:35:57 50° WNW
Cosmos 2322 3.8 03:30:50 10° NNW 03:36:33 73° ENE 03:42:12 10° SE
Cosmos 1709 Rocket 4.1 03:30:47 10° N 03:37:12 78° E 03:43:35 10° SSE
NOSS 3-2 (A) 3.9 03:34:43 10° NW 03:42:14 72° SW 03:50:42 10° SSE
H-2A R/B 3.6 03:38:29 10° SE 03:42:17 34° ENE 03:46:02 10° N
Spot 4 Rocket 4.0 03:41:21 10° N 03:46:26 61° WNW 03:46:28 61° WNW
COSMOS 2487 3.4 03:50:12 45° NE 03:50:12 45° NE 03:52:42 10° NNE
Cosmos 2344 3.4 03:46:42 42° SW 03:49:33 82° NW 03:57:38 10° NE
Cosmos 1833 4.1 03:48:29 57° SW 03:49:39 79° WNW 03:55:19 10° NNE
CENTAUR R/B 3.1 03:45:12 10° NW 03:53:19 84° SW 04:02:14 10° SSE
Cosmos 2251 Rocket 3.5 03:53:53 43° SSW 03:55:42 89° ESE 04:01:07 10° NNE
Cosmos 614 Rocket 4.3 03:54:14 25° S 03:57:17 64° ESE 04:02:27 10° NNE
ADEOS II 4.1 03:57:01 10° NNW 03:58:26 13° NW 03:58:26 13° NW
Cosmos 2360 Rocket 4.2 04:04:24 13° S 04:04:24 13° S 04:05:03 10° S
ISS -3.3 04:00:41 59° NE 04:00:41 59° NE 04:03:42 10° ESE
IDEFIX/ARIANE 42P 3.9 03:57:15 10° N 04:00:30 23° NW 04:00:30 23° NW
Cosmos 1933 4.3 03:58:06 12° SSE 04:01:37 47° E 04:05:32 10° NNE
Meteor 2-17 Rocket 4.3 03:56:30 10° N 04:02:35 82° W 04:08:39 10° S
ALOS 2.6 03:58:20 10° NNE 04:03:00 66° ESE 04:07:02 14° S
PAYLOAD A 4.1 03:57:56 10° N 04:03:12 65° WNW 04:05:04 40° SW
CZ-2C R/B 3.6 04:01:33 10° N 04:04:14 36° NNW 04:04:14 36° NNW
Cosmos 2237 Rocket 3.7 04:01:51 10° NNW 04:07:07 36° NE 04:12:19 10° ESE
Cosmos 2333 4.2 04:01:53 10° NNW 04:07:36 62° WSW 04:13:17 10° S
USA 234 3.6 04:03:35 10° SSE 04:09:39 40° SW 04:11:34 33° W
Cosmos 407 Rocket 4.3 04:07:25 10° S 04:12:23 49° ESE 04:17:20 10° NNE
CZ-4C R/B 2.5 04:10:13 23° SSW 04:13:17 59° ESE 04:19:03 10° NE
Cosmos 883 Rocket 4.4 04:11:11 24° SSW 04:14:57 61° WNW 04:21:02 10° N
PSLV R/B 3.5 04:11:17 10° N 04:15:39 68° WNW 04:17:21 36° SW
USA 276 2.0 04:16:02 88° E 04:16:02 88° E 04:19:13 10° ENE
GENESIS II 4.4 04:17:05 48° WNW 04:17:28 50° NW 04:21:21 10° NNE
Lacrosse 5 2.2 04:19:25 38° W 04:20:26 43° SW 04:25:12 10° SSE
NOSS 3-4 (A) 3.8 04:16:30 15° SSW 04:21:18 62° ESE 04:27:29 10° NE
NOSS 3-4 (C) 3.8 04:16:34 15° SSW 04:21:25 61° ESE 04:27:35 10° NE
Cosmos 192 4.3 04:18:29 10° NNW 04:23:27 88° WSW 04:28:26 10° SSE
NOSS 3-2 (C) 4.0 04:16:46 10° NW 04:24:15 65° WSW 04:32:41 10° SSE
Cosmos 2333 Rocket 2.3 04:23:15 10° NW 04:28:50 52° WSW 04:34:23 10° S
Cosmos 2221 4.2 04:30:18 18° NW 04:30:18 18° NW 04:32:31 10° NNW
SL-16 R/B 4.5 04:25:17 10° N 04:29:51 24° NE 04:34:23 10° E
Cosmos 1484 Rocket 2.5 04:28:54 10° N 04:32:37 74° WNW 04:35:27 16° SSW
Cosmos 1805 Rocket 4.0 04:29:10 10° NNW 04:33:20 39° W 04:37:28 10° SSW
Cosmos 1437 Rocket 3.3 04:30:12 10° S 04:34:12 62° E 04:38:10 10° NNE
Cosmos 1470 Rocket 4.5 04:31:02 10° N 04:35:17 50° ENE 04:39:29 10° SSE
SJ-6F 4.4 04:31:59 10° N 04:36:09 70° WNW 04:40:18 10° SSW
ATLAS 2AS CENTAUR R/B 3.6 04:28:52 10° SSW 04:36:34 60° ESE 04:44:13 10° NE
Landsat 5 3.7 04:32:59 10° SSW 04:36:35 38° W 04:40:17 10° NNW
CZ-2C R/B 3.1 04:35:40 10° N 04:39:51 32° WNW 04:41:25 25° W
Cosmos 2315 Rocket 4.2 04:34:41 11° SSW 04:40:25 48° WNW 04:46:25 10° N
CZ-4B R/B 2.3 04:37:47 10° SSE 04:40:44 46° ENE 04:43:41 10° N
COSMO-SKYMED 1 2.9 04:37:24 10° SSE 04:41:42 69° ENE 04:46:03 10° N
Cosmos 2297 Rocket 3.8 04:36:59 10° S 04:42:04 36° ESE 04:47:10 10° NE
Cosmos 2219 Rocket 2.4 04:38:03 10° NW 04:43:26 46° WSW 04:48:49 10° S
Cosmos 1782 3.0 04:40:13 10° S 04:44:09 74° E 04:48:07 10° NNE
CBERS 1 LM4 rocket 4.3 04:42:56 10° N 04:47:41 64° WNW 04:52:21 10° SSW
Cosmos 1606 3.9 04:47:57 23° W 04:48:17 24° WNW 04:51:30 10° NNW
Cosmos 1140 Rocket 3.5 04:44:31 10° SSW 04:49:44 87° ESE 04:54:57 10° NNE
Sich 1 3.6 04:45:57 10° NNW 04:49:57 34° W 04:53:54 10° SSW
Cosmos 1980 3.9 04:46:33 10° NNW 04:52:15 77° ENE 04:57:55 10° SSE
Cosmos 1500 3.9 04:48:35 10° N 04:52:20 58° ENE 04:56:06 10° SSE
Meteor 1-26 Rocket 4.3 04:47:10 10° S 04:52:55 87° WNW 04:58:53 10° N
METEOR-M 4.1 04:48:25 10° N 04:53:41 62° WNW 04:58:56 10° SSW
ERS-2 4.1 04:51:57 10° SE 04:55:12 31° ENE 04:58:28 10° N
Cosmos 1933 Rocket 4.4 04:51:19 10° N 04:55:43 55° ENE 05:00:06 10° SSE
Cosmos 1666 Rocket 3.8 04:52:59 10° NNW 04:57:11 46° W 05:01:22 10° SSW
Cosmos 2074 Rocket 3.9 04:51:51 10° NNW 04:58:01 69° W 05:04:10 10° S
COSMOS 2428 3.1 04:54:44 10° NW 05:00:04 41° WSW 05:05:22 10° S
MOS 1 Rocket 3.1 04:56:28 10° S 05:00:51 71° WSW 05:05:32 10° NNW
SeaSat 1 2.4 04:56:11 10° SSE 05:01:05 72° WSW 05:06:03 10° NNW
Cosmos 1023 Rocket 4.4 04:56:17 10° SSW 05:01:28 74° WNW 05:06:38 10° NNE
BREEZE M DEB (TANK) 2.5 04:59:34 19° WNW 05:01:33 83° SSW 05:08:59 10° ESE
BREEZE-M DEB (TANK) 2.7 05:00:38 16° W 05:03:54 58° N 05:06:15 10° ENE
CZ-4C R/B 4.5 05:04:28 17° W 05:04:28 17° W 05:06:24 10° NW
ATLAS 5 CENTAUR R/B 1.4 05:00:51 13° SW 05:04:18 68° NW 05:08:50 10° NE
YAOGAN 6 4.2 05:02:02 10° NNE 05:05:20 37° E 05:08:34 10° SSE
Cosmos 2154 Rocket 4.0 04:59:15 10° N 05:05:31 90° W 05:11:48 10° S
ATLAS 3B R/B 3.1 05:01:22 10° NW 05:08:21 73° NE 05:15:37 10° SE
CZ-4B R/B 3.7 05:04:46 10° N 05:08:24 57° WNW 05:11:59 10° SSW
ADEOS 3.6 05:03:48 10° N 05:08:59 67° WNW 05:14:10 10° SSW
Cosmos 1602 4.1 05:07:12 10° NNW 05:10:54 40° W 05:14:33 10° SSW
FENGYUN 3A 4.4 05:09:51 10° N 05:14:40 33° WNW 05:19:27 10° SW
USA 267 4.1 05:10:52 10° ENE 05:16:51 40° N 05:22:49 10° WNW
H-2A R/B 3.0 05:14:49 10° SSW 05:18:18 25° W 05:21:46 10° NW
Cosmos 1151 Rocket 3.5 05:15:55 10° SW 05:19:58 39° WNW 05:24:01 10° N
Cosmos 909 Rocket 4.4 05:15:29 10° WSW 05:21:43 47° NW 05:27:50 10° NNE
Cosmos 2219 3.6 05:16:15 10° SSW 05:21:52 68° ESE 05:27:29 10° NNE
NOSS 0 Rocket 4.2 05:18:06 10° NW 05:23:59 48° WSW 05:29:54 10° S
Cosmos 1763 Rocket 4.0 05:19:31 10° NNW 05:24:45 64° ENE 05:29:51 10° SSE
Cosmos 2184 Rocket 4.3 05:18:52 10° NNW 05:24:51 46° W 05:30:52 10° SSW
Meteor 2-12 Rocket 4.4 05:19:08 10° NNW 05:25:16 73° W 05:31:24 10° S
Cosmos 1633 Rocket 3.9 05:24:24 10° NNW 05:28:08 27° W 05:31:49 10° SSW
SKYMED 2 4.0 05:25:47 10° SSW 05:29:51 38° W 05:33:56 10° NNW
USA-17 4.3 05:28:56 10° SW 05:32:42 81° NW 05:35:49 10° NE
H-2A R/B 2.7 05:29:41 10° N 05:33:35 68° WNW 05:37:25 10° SSW
Cosmos 1242 Rocket 2.4 05:31:36 10° SSW 05:35:03 73° WNW 05:38:33 10° N
ISS -2.6 05:34:03 10° W 05:37:00 28° SW 05:39:56 10° SSE
Cosmos 468 Rocket 4.1 05:31:55 10° NNW 05:37:10 84° ENE 05:42:19 10° SSE
ALOS 3.8 05:36:51 10° NNW 05:39:55 18° WNW 05:43:00 10° WSW
Cosmos 1812 2.7 05:36:27 10° SSW 05:40:14 59° WNW 05:44:03 10° N
CZ-2C R/B 3.1 05:36:17 10° SSE 05:41:52 74° ENE 05:47:29 10° N
CENTAUR R/B 4.2 05:36:58 10° WNW 05:43:21 25° WSW 05:50:03 10° SSW
